This is the latest recevied weather packets stored in our database for station/object KJ4EBE. If no packets are shown the sender has not sent any weather packets the latest 10 day(s).
| Time | Temp. | Humidity | Pressure | Rain* | Wind** | Luminosity | Snow |
|---|---|---|---|---|---|---|---|
| 1777581443 | 17.78° C | 99% | 1010.5 hPa | 1.27 mm | - | 161 W/m² | - |
| 1777581138 | 17.78° C | 99% | 1010.1 hPa | 3.56 mm | - | 297 W/m² | - |
| 1777580833 | 17.22° C | 99% | 1010.7 hPa | 5.33 mm | - | 151 W/m² | - |
| 1777580529 | 17.22° C | 99% | 1012.2 hPa | 4.83 mm | - | 82 W/m² | - |
| 1777580223 | 17.22° C | 99% | 1013.1 hPa | 9.65 mm | - | 34 W/m² | - |
| 1777579921 | 17.22° C | 99% | 1012.9 hPa | 4.83 mm | - | 37 W/m² | - |
| 1777579616 | 17.22° C | 99% | 1013.4 hPa | 0 mm | - | 23 W/m² | - |
| 1777579316 | 17.22° C | 99% | 1012.1 hPa | 0 mm | - | 39 W/m² | - |
| 1777579012 | 17.22° C | 99% | 1011.9 hPa | 0.51 mm | - | 55 W/m² | - |
| 1777578707 | 17.22° C | 99% | 1011.4 hPa | 3.05 mm | - | 99 W/m² | - |
| 1777578406 | 17.22° C | 99% | 1011.7 hPa | 4.32 mm | - | 93 W/m² | - |
| 1777578102 | 17.22° C | 99% | 1012.3 hPa | 4.83 mm | - | 98 W/m² | - |
| 1777577798 | 17.22° C | 99% | 1011.7 hPa | 3.56 mm | - | 70 W/m² | - |
| 1777577494 | 17.22° C | 99% | 1012.1 hPa | 1.27 mm | - | 60 W/m² | - |
| 1777577191 | 17.22° C | 99% | 1011.4 hPa | 0 mm | - | 65 W/m² | - |
| 1777576887 | 16.67° C | 99% | 1011.3 hPa | 0 mm | - | 88 W/m² | - |
| 1777576587 | 17.22° C | 99% | 1010.7 hPa | 0.51 mm | - | 109 W/m² | - |
| 1777576283 | 16.67° C | 99% | 1011.3 hPa | 0.51 mm | - | 181 W/m² | - |
| 1777575980 | 16.67° C | 99% | 1011.7 hPa | 0 mm | - | 136 W/m² | - |
| 1777575675 | 16.67° C | 99% | 1011.3 hPa | 0 mm | - | 117 W/m² | - |
| 1777575371 | 16.67° C | 99% | 1011.1 hPa | 0.51 mm | - | 118 W/m² | - |
| 1777575068 | 16.67° C | 99% | 1011.3 hPa | 0.51 mm | - | 127 W/m² | - |
| 1777574763 | 16.67° C | 99% | 1011.1 hPa | 3.56 mm | - | 91 W/m² | - |
| 1777574461 | 16.67° C | 99% | 1011.7 hPa | 4.83 mm | - | 59 W/m² | - |
| 1777574156 | 16.11° C | 99% | 1010.9 hPa | 3.56 mm | - | 35 W/m² | - |
* Rain latest hour (hover to see other rain measurements)
** Current wind speed in m/s (hover to see current wind gust speed)